McAllen, TX

6:20 PM CDT on September 16, 2019 (GMT -0500)
McAllen Miller International

Weather History for KMFE - August, 2019

Change the Weather History Date:

Wednesday, August 21, 2019

  Actual Average Record
Temperature  
Mean Temperature 91 °F 87 °F  
Max Temperature 102 °F 98 °F 103 °F (1997)
Min Temperature 79 °F 77 °F 70 °F (1961)
Degree Days  
Heating Degree Days 0 0  
Month to date heating degree days 0 0  
Since 1 June heating degree days 0 0  
Since 1 July heating degree days 0 0  
Cooling Degree Days 26 22  
Month to date cooling degree days 561 480  
Year to date cooling degree days 3463 3037  
Since 1 June cooling degree days 1990 1782  
Growing Degree Days 40 (Base 50)    
Moisture  
Dew Point 72 °F    
Average Humidity 59    
Maximum Humidity 85    
Minimum Humidity 33    
Precipitation  
Precipitation 0.00 in 0.09 in 1.45 in (2000)
Month to date precipitation 0.00 1.17  
Year to date precipitation 13.12 12.53  
Snow  
Snow 0.00 in - - ()
Month to date snowfall 0.0  
Since 1 June snowfall 0.0  
Since 1 July snowfall 0.0  
Snow Depth 0.00 in    
Sea Level Pressure  
Sea Level Pressure 29.94 in    
Wind  
Wind Speed 10 mph (ESE)    
Max Wind Speed 22 mph    
Max Gust Speed 30 mph    
Visibility 10 miles    
Events      
T = Trace of Precipitation, MM = Missing Value Source: NWS Daily Summary

Daily Weather History Graph

Daily Weather History Graph

Search for Another Location

Airport or City:

Astronomy

Aug. 21, 2019 Rise Set
Actual Time 7:08 AM CDT 8:03 PM CDT
Civil Twilight 6:44 AM CDT 8:27 PM CDT
Nautical Twilight 6:16 AM CDT 8:55 PM CDT
Astronomical Twilight 5:47 AM CDT 9:24 PM CDT
Moon 11:55 PM CDT (8/21) 12:14 PM CDT (8/21)
Length of Visible Light 13h 43m
Length of Day
12h 55m
Waning Gibbous, 69% of the Moon is Illuminated
Aug 21
Waning Gibbous
Aug 23
Last Quarter
Aug 30
New
Sep 5
First Quarter
Sep 13
Full

Hourly Weather History & Observations

Time (CDT) Temp. Heat Index Dew Point Humidity Pressure Visibility Wind Dir Wind Speed Gust Speed Precip Events Conditions
12:53 AM 82.9 °F 89.4 °F 73.9 °F 74% 29.98 in 10.0 mi ESE 9.2 mph - N/A   Clear
1:53 AM 82.0 °F 87.9 °F 73.9 °F 76% 29.97 in 10.0 mi SE 6.9 mph - N/A   Clear
2:53 AM 80.1 °F 84.5 °F 73.9 °F 81% 29.97 in 10.0 mi ESE 5.8 mph - N/A   Scattered Clouds
3:53 AM 81.0 °F 86.7 °F 75.0 °F 82% 29.97 in 10.0 mi ESE 4.6 mph - N/A   Scattered Clouds
4:53 AM 80.1 °F 84.5 °F 73.9 °F 81% 29.96 in 10.0 mi ESE 4.6 mph - N/A   Partly Cloudy
5:53 AM 80.1 °F 85.1 °F 75.0 °F 85% 29.96 in 10.0 mi East 5.8 mph - N/A   Clear
6:53 AM 80.1 °F 85.1 °F 75.0 °F 85% 29.96 in 10.0 mi ESE 5.8 mph - N/A   Clear
7:53 AM 81.0 °F 87.3 °F 75.9 °F 85% 29.97 in 10.0 mi ESE 6.9 mph - N/A   Clear
8:53 AM 84.0 °F 92.6 °F 75.9 °F 76% 29.97 in 10.0 mi ESE 8.1 mph - N/A   Clear
9:53 AM 89.1 °F 99.1 °F 75.0 °F 63% 29.97 in 10.0 mi SSE 10.4 mph 20.7 mph N/A   Mostly Cloudy
10:07 AM 88.0 °F 96.5 °F 73.9 °F 63% 29.98 in 10.0 mi SSE 10.4 mph - N/A   Mostly Cloudy
10:53 AM 91.9 °F 99.5 °F 72.0 °F 52% 29.99 in 10.0 mi SE 12.7 mph - N/A   Partly Cloudy
11:53 AM 93.0 °F 100.1 °F 71.1 °F 49% 29.98 in 10.0 mi East 6.9 mph - N/A   Scattered Clouds
12:53 PM 98.1 °F 105.0 °F 70.0 °F 40% 29.96 in 10.0 mi SE 10.4 mph - N/A   Partly Cloudy
1:53 PM 98.1 °F 105.0 °F 70.0 °F 40% 29.94 in 10.0 mi ESE 12.7 mph - N/A   Partly Cloudy
2:53 PM 98.1 °F 104.4 °F 69.1 °F 39% 29.91 in 4.0 mi ESE 12.7 mph 19.6 mph N/A   Haze
3:17 PM 97.0 °F 102.8 °F 69.1 °F 40% 29.90 in 10.0 mi ESE 11.5 mph 21.9 mph N/A   Mostly Cloudy
3:53 PM 100.9 °F 106.7 °F 68.0 °F 34% 29.88 in 10.0 mi SE 9.2 mph 18.4 mph N/A   Scattered Clouds
4:53 PM 100.0 °F 104.9 °F 66.9 °F 34% 29.86 in 10.0 mi East 11.5 mph - N/A   Overcast
5:53 PM 98.1 °F 104.4 °F 69.1 °F 39% 29.86 in 10.0 mi East 18.4 mph 26.5 mph N/A   Partly Cloudy
6:53 PM 93.9 °F 100.8 °F 71.1 °F 47% 29.87 in 10.0 mi East 18.4 mph 29.9 mph N/A   Clear
7:53 PM 91.0 °F 97.6 °F 71.1 °F 52% 29.89 in 10.0 mi East 16.1 mph - N/A   Clear
8:53 PM 88.0 °F 94.7 °F 72.0 °F 59% 29.91 in 10.0 mi East 17.3 mph - N/A   Clear
9:53 PM 86.0 °F 93.0 °F 73.0 °F 65% 29.92 in 10.0 mi ESE 13.8 mph - N/A   Clear
10:53 PM 84.9 °F 91.4 °F 73.0 °F 67% 29.93 in 10.0 mi ESE 11.5 mph - N/A   Clear
11:53 PM 84.0 °F 91.2 °F 73.9 °F 72% 29.94 in 10.0 mi ESE 9.2 mph - N/A   Clear